Temperature
-4 -4 -4 -4 -4 -4 -4 -4 -4 -4 -4 -3 -3 -3 -3 -3 -3 -3 -3 -2 -2 -2 -1 -1 -1 -1 -1 -0 -0 -0 0 0 0 0 1 1 1 2 2 2 3 3 3
-4 -4 -4 -4 -4 -4 -4 -4 -4 -4 -4 -4 -4 -4 -4 -3 -3 -3 -3 -3 -3 -3 -2 -2 -2 -2 -1 -1 -1 -1 -1 -0 -0 -0 0 0 1 1 1 2 2 2 3
-5 -5 -5 -5 -5 -5 -5 -5 -5 -5 -5 -5 -5 -5 -4 -4 -4 -4 -4 -4 -3 -3 -3 -3 -2 -2 -2 -2 -1 -1 -1 -1 -1 -1 -1 -0 -0 0 1 1 1 2 2
-5 -5 -5 -6 -6 -6 -6 -5 -5 -5 -5 -5 -5 -5 -5 -5 -5 -4 -4 -4 -4 -4 -3 -3 -3 -3 -3 -2 -2 -2 -2 -2 -2 -2 -1 -1 -1 -1 -0 0 0 1 1
-6 -6 -6 -6 -6 -6 -6 -6 -6 -6 -6 -6 -6 -6 -5 -5 -5 -5 -5 -5 -4 -4 -4 -4 -3 -3 -3 -3 -3 -2 -2 -2 -2 -2 -2 -2 -2 -1 -1 -1 -0 0 1
-6 -6 -6 -7 -7 -7 -7 -7 -6 -6 -7 -7 -6 -6 -6 -6 -6 -6 -6 -5 -5 -5 -4 -4 -4 -4 -3 -3 -3 -3 -3 -2 -2 -2 -2 -2 -2 -2 -1 -1 -1 -1 -0
-7 -7 -7 -7 -7 -7 -7 -7 -7 -7 -7 -7 -7 -7 -6 -6 -6 -6 -6 -5 -5 -5 -5 -5 -4 -4 -4 -4 -4 -3 -3 -3 -3 -2 -2 -2 -2 -2 -2 -2 -1 -1 -1
-7 -7 -7 -7 -8 -8 -8 -8 -8 -7 -8 -7 -7 -7 -7 -6 -6 -7 -6 -6 -6 -5 -5 -5 -5 -4 -4 -4 -4 -4 -3 -3 -3 -3 -3 -3 -2 -2 -2 -2 -2 -2 -2
-8 -8 -8 -8 -8 -8 -8 -8 -8 -8 -8 -8 -8 -8 -7 -7 -7 -7 -6 -6 -6 -6 -5 -5 -5 -5 -5 -4 -4 -4 -4 -4 -3 -3 -3 -3 -3 -3 -3 -2 -2 -3 -3
-8 -8 -8 -8 -9 -9 -9 -9 -9 -9 -9 -9 -8 -8 -8 -8 -7 -7 -7 -7 -6 -6 -6 -6 -5 -5 -5 -5 -4 -4 -4 -4 -4 -4 -4 -3 -3 -3 -3 -3 -3 -3 -3
-9 -9 -9 -9 -9 -9 -9 -9 -9 -9 -9 -9 -9 -8 -8 -8 -8 -8 -7 -7 -7 -7 -6 -6 -6 -5 -5 -5 -5 -5 -4 -4 -4 -4 -4 -4 -4 -4 -4 -3 -3 -3 -3
-9 -9 -9 -9 -9 -10 -10 -10 -10 -10 -10 -10 -9 -9 -9 -9 -8 -8 -8 -8 -7 -7 -7 -6 -6 -6 -5 -5 -5 -5 -5 -5 -5 -5 -5 -5 -4 -4 -4 -4 -4 -4 -4
-9 -9 -9 -10 -10 -10 -10 -10 -10 -10 -10 -10 -10 -10 -10 -9 -9 -9 -8 -8 -8 -8 -7 -7 -7 -6 -6 -6 -6 -5 -5 -5 -5 -5 -5 -5 -5 -5 -5 -5 -4 -4 -4
-10 -10 -10 -10 -10 -10 -10 -10 -10 -11 -11 -11 -11 -11 -10 -10 -10 -9 -9 -9 -8 -8 -7 -7 -7 -7 -6 -6 -6 -6 -6 -6 -6 -6 -6 -6 -6 -5 -5 -5 -5 -5 -5
-10 -10 -10 -11 -11 -11 -11 -11 -11 -11 -11 -11 -11 -11 -11 -11 -10 -10 -9 -9 -9 -8 -8 -8 -8 -7 -7 -7 -7 -7 -7 -7 -6 -6 -6 -6 -6 -6 -6 -6 -6 -5 -5
-11 -11 -11 -11 -11 -11 -11 -11 -11 -11 -11 -11 -11 -11 -11 -11 -11 -10 -10 -9 -9 -9 -9 -8 -8 -8 -8 -8 -8 -8 -7 -7 -7 -7 -7 -7 -7 -7 -6 -6 -6 -6 -6
-11 -11 -11 -11 -11 -11 -11 -11 -11 -11 -11 -11 -11 -11 -11 -11 -11 -10 -10 -10 -10 -9 -9 -9 -9 -9 -9 -9 -9 -9 -8 -8 -8 -8 -7 -7 -7 -7 -7 -7 -7 -6 -6
-11 -11 -11 -11 -11 -12 -12 -12 -12 -12 -11 -11 -11 -11 -11 -11 -11 -10 -10 -10 -10 -10 -10 -10 -10 -10 -10 -10 -10 -9 -9 -9 -8 -8 -8 -8 -8 -7 -7 -7 -7 -7 -7
-12 -12 -12 -12 -12 -12 -12 -12 -12 -12 -12 -12 -12 -11 -11 -11 -11 -11 -11 -11 -11 -11 -11 -11 -11 -11 -11 -10 -10 -10 -10 -9 -9 -9 -8 -8 -8 -8 -8 -8 -7 -7 -7
-12 -12 -12 -12 -12 -12 -12 -12 -12 -12 -12 -12 -12 -12 -12 -12 -12 -11 -11 -11 -11 -11 -11 -11 -11 -11 -11 -11 -11 -10 -10 -10 -10 -9 -9 -9 -9 -9 -8 -8 -8 -8 -7
-12 -12 -12 -12 -12 -12 -12 -12 -12 -13 -13 -13 -13 -13 -13 -13 -12 -12 -12 -12 -12 -12 -12 -11 -11 -11 -11 -11 -11 -11 -10 -10 -10 -10 -10 -9 -9 -9 -9 -8 -8 -8 -8
-13 -13 -13 -13 -13 -12 -13 -13 -13 -13 -13 -13 -13 -13 -13 -13 -13 -13 -12 -12 -12 -12 -12 -12 -12 -11 -12 -12 -11 -11 -11 -10 -10 -10 -10 -9 -9 -9 -9 -9 -9 -8 -8
-13 -13 -13 -13 -13 -13 -13 -13 -13 -13 -13 -13 -13 -13 -13 -13 -13 -13 -13 -13 -12 -12 -12 -12 -12 -12 -12 -12 -11 -11 -11 -11 -11 -10 -10 -10 -9 -9 -9 -9 -9 -9 -9
-13 -13 -13 -13 -13 -13 -13 -13 -13 -13 -13 -13 -13 -13 -13 -13 -13 -13 -13 -13 -13 -12 -12 -12 -12 -12 -11 -11 -11 -11 -11 -11 -11 -10 -10 -10 -9 -9 -9 -9 -9 -9 -9
-13 -13 -13 -13 -13 -13 -13 -13 -13 -13 -13 -13 -13 -13 -13 -13 -13 -13 -13 -13 -13 -12 -12 -12 -12 -12 -11 -11 -11 -11 -11 -11 -11 -11 -10 -10 -10 -10 -9 -9 -9 -9 -9
-14 -14 -14 -13 -13 -13 -13 -13 -13 -14 -14 -14 -14 -13 -13 -13 -13 -13 -13 -13 -13 -12 -12 -12 -12 -12 -12 -11 -11 -11 -11 -11 -11 -11 -11 -10 -10 -10 -10 -10 -10 -10 -10
Wind_Speed
4 4 5 5 6 6 6 6 7 7 8 8 8 8 8 8 8 7 7 7 7 7 7 7 7 7 6 5 5 5 6 5 7 6 4 3 4 4 5 5 6 5 6
4 5 5 6 6 6 7 7 7 7 8 8 8 8 8 8 8 8 8 8 8 8 8 8 8 7 7 6 6 6 6 6 6 8 5 4 5 4 4 4 4 5 5
5 5 6 6 6 7 7 8 8 8 8 9 8 8 9 9 9 9 9 9 9 9 9 9 9 8 8 7 7 7 6 6 5 6 6 4 4 3 3 4 4 3 4
5 5 6 6 7 7 8 8 8 8 8 8 9 9 9 9 9 10 10 10 9 10 9 9 9 9 9 9 8 8 7 7 6 6 6 4 4 3 3 4 4 3 4
6 6 7 7 7 7 7 8 8 8 9 9 9 9 9 8 8 10 10 10 10 10 9 10 10 11 13 11 9 8 8 7 6 6 6 5 5 4 4 3 4 3 4
6 7 7 7 7 7 7 8 8 8 9 9 9 9 9 9 14 16 14 10 9 10 10 9 10 11 13 14 14 12 10 9 8 7 7 7 7 6 4 5 4 4 5
7 7 7 7 8 8 8 8 8 8 8 9 9 9 10 11 16 17 17 11 9 9 10 9 9 9 11 9 11 13 12 13 12 10 10 10 8 7 7 7 7 6 6
7 7 7 7 8 8 8 8 8 8 8 9 9 9 10 12 16 17 17 10 9 9 9 10 10 9 9 10 9 9 9 9 11 9 9 9 8 7 8 8 8 6 5
7 8 8 8 8 8 9 9 8 8 9 9 9 9 9 12 16 17 16 9 8 9 9 9 10 10 13 13 10 10 9 8 10 12 12 12 12 12 9 6 5 6 6
8 9 8 8 8 9 9 9 8 8 9 9 10 9 9 10 15 16 15 7 8 7 7 8 12 12 13 13 10 9 10 8 7 7 7 9 9 9 11 8 7 7 5
8 9 8 8 8 8 7 7 7 8 8 8 9 9 8 10 13 15 15 8 7 7 7 7 7 12 13 13 11 8 10 8 6 6 5 5 5 5 5 5 6 7 7
8 8 8 7 7 7 7 7 7 7 7 7 7 8 7 8 11 13 15 14 11 7 7 6 7 12 12 12 8 8 9 7 4 4 4 5 5 4 4 4 5 5 6
7 7 7 8 7 7 6 7 6 5 5 7 7 7 8 7 8 14 15 15 14 8 6 9 10 11 9 5 5 6 5 3 3 4 5 4 4 4 3 3 3 3 3
6 7 7 6 7 6 6 6 5 5 6 7 7 7 8 8 7 8 7 9 10 8 6 7 8 7 5 5 4 4 3 3 4 4 4 4 3 3 3 3 4 4 3
6 6 6 6 6 6 6 5 6 5 6 7 6 6 7 8 10 14 11 8 6 6 5 3 3 3 3 3 3 2 2 3 3 3 4 4 4 3 3 3 3 4 4
6 6 5 5 6 5 6 7 9 10 13 13 12 11 9 12 15 15 14 13 13 10 5 3 3 3 3 3 3 3 3 3 3 3 3 3 4 3 3 3 3 3 4
5 6 5 5 5 6 6 6 8 10 12 12 13 14 13 14 15 14 14 12 11 9 4 3 4 4 4 4 3 3 4 3 3 3 3 3 3 3 3 3 3 3 4
5 6 6 5 5 5 6 6 6 7 8 8 10 13 14 14 14 14 13 10 6 6 4 4 4 4 4 4 4 4 4 3 3 3 3 3 3 3 3 3 3 4 4
5 5 5 5 5 5 5 5 5 6 6 7 8 9 12 13 12 12 11 6 5 5 5 5 5 4 4 4 4 4 4 4 3 3 3 2 2 2 3 3 3 4 4
5 8 7 5 5 5 5 5 5 6 6 6 7 8 8 8 7 8 7 6 5 6 5 5 5 5 5 5 4 4 4 4 4 3 3 2 2 2 3 3 3 3 3
4 6 8 6 5 5 5 5 5 5 5 6 6 8 11 7 6 7 6 6 6 6 6 6 5 5 5 4 4 4 4 4 4 3 3 2 2 2 2 2 2 3 2
4 4 4 5 5 5 5 5 5 5 6 6 6 8 12 7 6 6 6 6 6 6 6 5 5 5 5 5 4 4 4 4 4 3 3 3 2 2 2 2 1 1 2
4 4 5 5 5 7 7 5 5 5 5 6 6 6 7 6 6 6 7 7 6 6 6 6 5 6 6 6 5 4 4 4 4 4 3 3 2 2 2 2 2 2 2
3 4 5 5 5 5 5 5 5 5 6 6 6 6 6 6 6 7 7 7 7 7 7 6 6 7 9 7 6 6 5 5 5 4 3 2 2 1 1 1 2 2 2
3 4 4 5 5 5 5 6 5 5 6 6 6 6 6 6 6 7 7 7 8 7 8 8 7 7 8 9 8 7 7 7 6 3 2 2 1 1 1 1 1 1 1
3 4 4 4 5 5 5 6 6 6 6 6 6 6 6 6 7 7 7 7 7 7 8 8 8 9 10 9 9 8 8 7 6 5 2 1 1 1 0 1 1 1 1
Wind_Direction
320 317 317 314 315 315 312 309 309 310 312 313 311 310 307 305 303 295 291 288 285 285 285 282 279 264 255 250 246 242 241 239 252 267 260 262 254 254 264 254 249 250 249
308 310 310 310 314 314 311 309 312 308 309 311 310 307 304 303 301 295 289 287 280 279 279 276 278 277 259 253 245 243 243 239 243 257 261 254 255 248 247 254 259 251 243
307 307 310 311 312 309 308 308 311 309 307 308 306 302 301 301 299 295 288 281 275 272 269 269 270 271 264 256 248 245 244 246 239 245 256 253 258 249 248 261 266 264 258
306 304 303 302 302 302 303 305 306 307 306 304 302 300 299 298 296 294 290 282 273 269 265 262 263 260 260 256 251 244 239 238 238 237 250 251 249 239 229 242 260 253 260
303 300 298 299 300 302 304 305 306 306 306 304 303 302 301 297 291 290 286 281 276 271 266 262 261 261 261 257 253 245 236 235 235 237 242 247 239 229 231 230 245 251 258
304 295 299 304 305 305 306 307 307 306 305 305 302 301 300 298 300 300 297 286 282 276 270 266 265 265 266 264 262 255 245 238 233 237 244 240 239 233 229 233 238 246 259
307 303 303 304 305 306 308 307 304 304 303 303 300 298 296 296 303 303 301 296 284 278 274 270 268 265 268 262 261 259 253 249 246 239 239 241 238 230 224 230 234 241 249
309 308 305 306 305 306 304 303 302 302 300 300 299 297 297 300 306 306 305 301 286 276 271 265 263 263 260 255 251 251 247 247 247 244 240 243 243 233 227 232 238 243 252
309 310 308 305 302 302 301 299 300 300 300 299 297 296 298 302 307 308 308 297 287 279 274 269 262 258 261 261 253 250 250 251 254 248 246 246 247 245 238 231 227 228 245
305 304 303 301 301 296 293 295 297 298 298 301 302 300 297 299 308 312 312 300 292 286 280 274 268 265 264 261 250 245 245 249 246 249 251 252 251 246 242 232 222 226 237
306 305 304 302 298 296 293 293 297 300 302 301 301 301 298 302 311 316 316 310 294 290 286 283 275 275 272 265 262 251 248 248 240 238 244 248 248 243 241 238 228 224 231
310 308 306 304 303 308 305 299 298 299 303 302 303 306 304 306 313 316 318 315 307 293 287 285 281 283 279 272 270 266 262 254 239 237 241 244 247 246 245 240 233 230 235
312 309 308 310 309 309 305 301 302 302 305 308 309 310 313 314 316 320 319 318 314 304 291 290 293 297 298 286 280 275 269 251 236 237 241 250 250 244 236 233 225 217 229
308 308 311 313 312 310 309 307 305 304 305 309 312 312 314 316 316 317 315 314 315 313 308 306 311 314 318 316 308 298 275 252 244 243 246 249 245 236 236 232 233 226 232
310 311 315 315 310 308 309 307 309 295 299 309 310 310 315 314 318 323 324 320 319 312 318 329 337 334 325 319 312 304 295 285 272 257 247 243 241 240 240 236 234 227 228
316 317 315 313 314 316 317 319 322 326 324 324 325 324 320 320 323 328 330 332 334 335 334 332 325 322 320 315 309 307 301 292 283 274 264 250 240 236 241 242 232 222 223
308 313 315 318 318 318 319 324 325 330 335 333 333 334 333 332 334 336 337 341 344 346 346 332 325 321 318 317 313 309 304 297 289 276 268 260 248 241 238 236 229 223 225
314 313 317 312 312 313 314 317 319 324 328 331 333 335 337 337 339 341 344 347 347 349 340 330 324 320 315 312 310 308 304 301 297 287 272 259 244 233 233 233 228 220 223
320 317 316 314 314 315 316 317 318 320 323 325 329 334 338 338 341 347 351 353 338 333 332 328 324 321 316 312 311 309 304 299 295 289 280 268 250 234 231 234 230 226 224
321 323 329 324 321 322 321 319 321 323 325 327 328 330 335 339 345 345 347 342 337 332 328 324 322 319 317 314 313 311 309 304 300 294 287 279 265 244 232 232 231 226 221
320 323 328 329 325 321 319 317 317 319 321 323 323 326 336 341 338 335 335 334 331 327 324 321 319 319 317 316 312 308 305 302 297 292 290 281 267 258 253 241 240 230 208
322 321 323 321 321 319 318 318 320 320 319 320 322 327 337 343 337 334 333 330 327 322 317 314 313 311 309 307 304 303 301 299 298 294 288 279 259 249 242 232 236 235 202
320 320 319 318 317 320 325 324 320 320 320 322 324 329 334 335 334 332 329 328 327 323 319 313 310 308 305 302 294 287 289 290 289 286 285 280 269 249 235 228 215 206 212
320 318 317 316 317 317 316 317 317 318 320 322 325 327 329 331 330 329 329 328 326 323 322 319 312 307 307 308 303 293 284 285 281 267 265 273 276 266 244 222 210 198 201
322 316 315 314 313 314 314 315 316 318 320 321 322 324 326 328 328 328 329 328 326 326 326 324 320 319 316 311 308 305 306 312 311 296 261 242 262 260 247 211 194 178 173
316 313 311 311 310 311 312 313 314 315 316 316 318 319 320 321 322 324 325 326 327 327 326 326 328 329 326 324 322 322 326 328 330 331 319 219 242 268 253 198 155 157 145
Height
1503 1502 1500 1498 1496 1493 1491 1489 1487 1485 1483 1480 1478 1476 1475 1473 1472 1471 1470 1469 1468 1467 1467 1467 1468 1468 1468 1469 1470 1471 1472 1472 1471 1470 1472 1473 1474 1475 1476 1477 1478 1479 1480
1500 1498 1496 1494 1492 1489 1487 1485 1483 1480 1478 1476 1474 1472 1470 1469 1467 1466 1464 1463 1462 1461 1461 1462 1461 1462 1462 1463 1463 1464 1464 1465 1466 1464 1465 1467 1468 1469 1469 1470 1471 1472 1473
1496 1494 1492 1490 1488 1485 1483 1481 1478 1476 1474 1472 1469 1467 1465 1463 1462 1460 1459 1458 1457 1456 1456 1456 1455 1455 1455 1456 1457 1457 1458 1459 1460 1459 1459 1461 1461 1463 1463 1464 1465 1466 1467
1492 1490 1488 1486 1483 1481 1479 1476 1474 1471 1469 1467 1464 1462 1460 1458 1456 1455 1453 1452 1451 1450 1450 1450 1449 1449 1449 1449 1450 1450 1451 1452 1453 1453 1453 1454 1455 1456 1457 1458 1458 1459 1460
1488 1486 1484 1482 1479 1477 1474 1472 1469 1467 1464 1462 1460 1457 1455 1453 1451 1449 1448 1446 1445 1444 1444 1443 1443 1443 1443 1443 1444 1444 1445 1446 1447 1447 1447 1448 1448 1450 1451 1452 1452 1453 1454
1484 1481 1479 1477 1475 1472 1470 1467 1465 1462 1460 1457 1455 1452 1450 1447 1446 1444 1443 1441 1439 1438 1437 1436 1436 1436 1436 1436 1437 1438 1439 1439 1440 1441 1441 1441 1442 1443 1445 1446 1447 1447 1447
1480 1477 1475 1473 1470 1468 1465 1463 1460 1457 1455 1452 1449 1447 1444 1442 1440 1438 1437 1435 1433 1432 1430 1430 1429 1429 1430 1429 1430 1430 1431 1432 1433 1434 1434 1434 1436 1437 1438 1439 1440 1441 1440
1475 1473 1471 1468 1466 1463 1461 1458 1455 1453 1450 1447 1444 1441 1438 1436 1434 1433 1431 1429 1427 1425 1424 1423 1423 1422 1423 1423 1423 1423 1423 1424 1425 1427 1427 1428 1430 1431 1432 1433 1433 1433 1434
1472 1469 1467 1464 1461 1458 1456 1453 1450 1448 1445 1442 1439 1436 1433 1431 1429 1427 1425 1423 1420 1419 1417 1417 1416 1416 1416 1417 1417 1416 1416 1417 1418 1420 1420 1421 1422 1424 1426 1426 1426 1426 1425
1467 1465 1463 1460 1457 1454 1451 1449 1446 1444 1440 1438 1435 1432 1429 1426 1424 1422 1420 1417 1415 1413 1411 1410 1410 1410 1409 1410 1410 1409 1409 1409 1411 1412 1413 1414 1415 1416 1418 1418 1419 1419 1419
1464 1461 1458 1456 1453 1450 1447 1445 1442 1439 1436 1433 1430 1428 1425 1422 1419 1417 1415 1413 1410 1408 1406 1404 1403 1403 1403 1403 1404 1403 1403 1404 1404 1405 1406 1406 1407 1408 1409 1410 1411 1412 1412
1460 1457 1454 1452 1449 1446 1443 1441 1438 1436 1432 1429 1426 1423 1420 1418 1415 1412 1410 1408 1406 1404 1401 1399 1398 1398 1397 1397 1397 1397 1398 1398 1398 1398 1398 1399 1400 1400 1401 1403 1403 1404 1405
1456 1453 1451 1448 1445 1443 1440 1437 1434 1432 1429 1426 1423 1419 1416 1414 1411 1409 1406 1403 1401 1399 1397 1395 1394 1393 1392 1392 1392 1392 1392 1392 1391 1391 1391 1392 1393 1393 1394 1396 1397 1398 1398
1452 1450 1447 1444 1442 1440 1437 1434 1432 1429 1426 1423 1420 1417 1413 1410 1407 1404 1402 1399 1396 1394 1392 1391 1389 1388 1388 1387 1386 1386 1386 1386 1386 1386 1385 1386 1387 1387 1388 1389 1390 1391 1391
1449 1447 1444 1442 1439 1437 1434 1432 1429 1427 1425 1422 1419 1415 1412 1408 1405 1403 1400 1396 1393 1391 1389 1387 1385 1383 1382 1381 1381 1381 1381 1380 1380 1380 1380 1380 1380 1381 1381 1383 1384 1384 1385
1447 1444 1442 1439 1437 1434 1432 1429 1427 1425 1422 1419 1416 1414 1410 1407 1404 1400 1397 1394 1391 1389 1386 1383 1381 1380 1378 1377 1376 1376 1375 1375 1375 1375 1374 1374 1374 1375 1376 1377 1378 1378 1379
1445 1443 1440 1438 1435 1433 1430 1427 1423 1421 1419 1416 1413 1410 1407 1404 1401 1397 1394 1391 1389 1386 1383 1381 1379 1378 1376 1374 1373 1372 1371 1371 1370 1370 1369 1369 1369 1370 1370 1371 1372 1373 1374
1443 1441 1439 1436 1433 1431 1428 1425 1422 1418 1415 1412 1410 1407 1404 1401 1398 1395 1392 1389 1386 1384 1381 1379 1377 1376 1374 1372 1370 1369 1368 1367 1366 1365 1365 1364 1364 1365 1365 1366 1367 1367 1368
1441 1439 1436 1434 1432 1429 1427 1424 1420 1417 1414 1410 1407 1404 1402 1399 1396 1393 1390 1387 1384 1382 1380 1378 1376 1374 1372 1370 1368 1366 1365 1364 1363 1361 1360 1360 1360 1360 1361 1361 1362 1363 1364
1439 1437 1435 1432 1430 1427 1424 1422 1419 1416 1413 1409 1406 1403 1399 1396 1393 1391 1388 1386 1383 1381 1378 1376 1374 1372 1370 1368 1366 1364 1362 1361 1360 1358 1357 1356 1356 1356 1357 1357 1358 1359 1360
1436 1434 1432 1430 1428 1425 1423 1420 1417 1415 1412 1408 1405 1403 1400 1396 1393 1390 1387 1385 1382 1379 1377 1375 1372 1370 1368 1366 1363 1361 1360 1358 1357 1355 1354 1354 1354 1354 1354 1354 1355 1356 1357
1435 1432 1430 1428 1426 1423 1421 1418 1416 1413 1410 1407 1404 1402 1399 1395 1392 1389 1386 1384 1381 1378 1376 1373 1370 1368 1366 1363 1361 1359 1357 1355 1354 1353 1352 1352 1351 1351 1352 1352 1353 1353 1354
1433 1431 1429 1426 1424 1422 1419 1417 1414 1412 1409 1406 1403 1400 1397 1394 1391 1388 1385 1382 1380 1377 1374 1371 1368 1366 1364 1361 1359 1358 1355 1354 1353 1351 1350 1349 1349 1349 1350 1350 1350 1351 1352
1431 1429 1427 1424 1422 1420 1417 1415 1412 1409 1407 1404 1401 1398 1395 1393 1390 1387 1384 1381 1378 1375 1372 1369 1367 1364 1361 1359 1357 1356 1354 1352 1351 1350 1349 1348 1348 1348 1348 1348 1349 1350 1350
1429 1426 1424 1422 1419 1417 1415 1412 1410 1407 1405 1402 1399 1397 1394 1391 1388 1386 1383 1380 1377 1374 1371 1368 1365 1362 1360 1358 1356 1354 1352 1351 1350 1349 1348 1347 1347 1347 1347 1347 1348 1348 1349
1426 1424 1422 1420 1418 1415 1413 1410 1408 1406 1403 1400 1398 1395 1392 1390 1387 1384 1381 1379 1376 1372 1369 1367 1364 1362 1359 1357 1355 1353 1351 1350 1349 1348 1347 1346 1346 1346 1346 1347 1347 1347 1348